Location: Unspecified
(50.0830°N, 0.0000°E)
Time: 11:37:14
(UTC+00:00)

Envisat - Pass Details

Date: 29 November 2019
Orbit: 764 x 766 km, 98.1° (Epoch: 06 December)

Event Time Altitude Azimuth Distance (km) Brightness Sun altitude
Rises 06:26:10 0° 18° (NNE) 3,244 6.2 -10.5°
Reaches altitude 10° 06:28:35 10° 25° (NNE) 2,313 5.5 -10.1°
Maximum altitude 06:33:28 45° 98° (E) 1,046 4.3 -9.4°
Drops below altitude 10° 06:38:18 10° 171° (S) 2,296 5.9 -8.7°
Sets 06:40:42 0° 177° (S) 3,218 6.6 -8.3°
